SWA1776 KDTW-KBOS

Flight info

Callsign SWA1776
Flight time 1h 17m
Altitude 37000
Route HHOWE4 LNCON JHW Q82 PONCT JFUND2
Aircraft B38M/M-SDE1FGHILORVWXY/HB1

Departure

Time 2026-05-06 20:11
Airport Detroit Metropolitan Wayne County Airport (KDTW)

Arrival

Time 2026-05-06 21:28
Airport Boston Logan International Airport (KBOS)
Time Latitude Longitude Altitude Speed Heading
2026-05-06 19:31 42.20480 -83.36132 651 ft 0 kts 118°
2026-05-06 19:56 42.20487 -83.36150 650 ft 2 kts 118°
2026-05-06 19:56 42.20494 -83.36168 653 ft 2 kts 118°
2026-05-06 19:56 42.20501 -83.36185 654 ft 2 kts 118°
2026-05-06 19:56 42.20510 -83.36200 652 ft 2 kts 144°
2026-05-06 19:57 42.20522 -83.36209 652 ft 2 kts 172°
2026-05-06 19:57 42.20537 -83.36208 651 ft 2 kts 201°
2026-05-06 19:57 42.20539 -83.36207 651 ft 0 kts 201°
2026-05-06 20:00 42.20536 -83.36209 651 ft 1 kts 202°
2026-05-06 20:00 42.20522 -83.36220 654 ft 4 kts 211°
2026-05-06 20:01 42.20490 -83.36246 651 ft 7 kts 208°
2026-05-06 20:01 42.20441 -83.36282 650 ft 10 kts 210°
2026-05-06 20:01 42.20371 -83.36337 650 ft 14 kts 209°
2026-05-06 20:01 42.20268 -83.36398 650 ft 16 kts 191°
2026-05-06 20:02 42.20191 -83.36363 650 ft 13 kts 109°
2026-05-06 20:02 42.20172 -83.36229 650 ft 16 kts 101°
2026-05-06 20:02 42.20161 -83.36064 650 ft 19 kts 88°
2026-05-06 20:02 42.20166 -83.35873 650 ft 21 kts 89°
2026-05-06 20:03 42.20169 -83.35662 650 ft 24 kts 89°
2026-05-06 20:03 42.20172 -83.35433 650 ft 25 kts 90°
2026-05-06 20:03 42.20187 -83.35202 652 ft 22 kts 54°
2026-05-06 20:03 42.20314 -83.35101 650 ft 22 kts 30°
2026-05-06 20:04 42.20454 -83.35002 651 ft 23 kts 17°
2026-05-06 20:04 42.20584 -83.34983 650 ft 18 kts 26°
2026-05-06 20:04 42.20689 -83.34912 650 ft 7 kts 20°
2026-05-06 20:04 42.20693 -83.34911 650 ft 0 kts 20°
2026-05-06 20:05 42.20693 -83.34910 650 ft 0 kts 26°
2026-05-06 20:05 42.20696 -83.34885 650 ft 7 kts 105°
2026-05-06 20:05 42.20627 -83.34900 653 ft 13 kts 224°
2026-05-06 20:06 42.20559 -83.34991 650 ft 15 kts 221°
2026-05-06 20:06 42.20451 -83.35005 650 ft 16 kts 189°
2026-05-06 20:06 42.20345 -83.35080 650 ft 21 kts 208°
2026-05-06 20:06 42.20208 -83.35180 651 ft 22 kts 208°
2026-05-06 20:07 42.20087 -83.35282 650 ft 17 kts 240°
2026-05-06 20:07 42.20080 -83.35430 650 ft 16 kts 269°
2026-05-06 20:07 42.20077 -83.35584 650 ft 17 kts 268°
2026-05-06 20:07 42.20074 -83.35748 650 ft 18 kts 269°
2026-05-06 20:08 42.20071 -83.35920 650 ft 19 kts 268°
2026-05-06 20:08 42.20069 -83.36102 650 ft 20 kts 271°
2026-05-06 20:08 42.20084 -83.36286 652 ft 20 kts 281°
2026-05-06 20:08 42.20113 -83.36474 651 ft 21 kts 281°
2026-05-06 20:09 42.20138 -83.36663 650 ft 20 kts 280°
2026-05-06 20:09 42.20166 -83.36834 650 ft 18 kts 283°
2026-05-06 20:09 42.20196 -83.36988 650 ft 16 kts 292°
2026-05-06 20:09 42.20260 -83.37094 651 ft 14 kts 349°
2026-05-06 20:10 42.20350 -83.37041 650 ft 15 kts 29°
2026-05-06 20:10 42.20529 -83.36910 650 ft 66 kts 27°
2026-05-06 20:10 42.21197 -83.36430 649 ft 150 kts 25°
2026-05-06 20:10 42.22208 -83.35625 1158 ft 181 kts 26°
2026-05-06 20:11 42.23393 -83.34608 1693 ft 221 kts 27°
2026-05-06 20:11 42.24787 -83.33360 2314 ft 264 kts 31°
2026-05-06 20:11 42.26002 -83.31518 2913 ft 269 kts 50°
2026-05-06 20:11 42.27127 -83.29381 3541 ft 285 kts 51°
2026-05-06 20:12 42.28275 -83.27216 4160 ft 284 kts 51°
2026-05-06 20:12 42.29458 -83.25050 4784 ft 287 kts 50°
2026-05-06 20:12 42.30652 -83.22867 5394 ft 292 kts 51°
2026-05-06 20:12 42.31836 -83.20678 6020 ft 293 kts 51°
2026-05-06 20:13 42.32867 -83.18335 6629 ft 297 kts 71°
2026-05-06 20:13 42.33113 -83.15661 7494 ft 283 kts 96°
2026-05-06 20:13 42.32787 -83.12995 8134 ft 295 kts 102°
2026-05-06 20:13 42.32369 -83.10216 8026 ft 302 kts 102°
2026-05-06 20:14 42.31949 -83.07466 7973 ft 297 kts 102°
2026-05-06 20:14 42.31558 -83.04749 8299 ft 291 kts 101°
2026-05-06 20:14 42.31167 -83.02012 8970 ft 303 kts 102°
2026-05-06 20:14 42.30752 -82.99240 9644 ft 307 kts 105°
2026-05-06 20:15 42.30220 -82.96410 10278 ft 314 kts 104°
2026-05-06 20:15 42.29781 -82.93499 10895 ft 319 kts 103°
2026-05-06 20:15 42.29320 -82.90541 11527 ft 324 kts 104°
2026-05-06 20:15 42.28805 -82.87561 12167 ft 329 kts 105°
2026-05-06 20:16 42.28277 -82.84526 12825 ft 335 kts 105°
2026-05-06 20:16 42.27756 -82.81431 13493 ft 341 kts 105°
2026-05-06 20:16 42.27230 -82.78283 14120 ft 346 kts 105°
2026-05-06 20:16 42.26696 -82.75117 14698 ft 345 kts 107°
2026-05-06 20:17 42.26159 -82.71984 15299 ft 350 kts 108°
2026-05-06 20:17 42.25611 -82.68772 15918 ft 353 kts 108°
2026-05-06 20:17 42.25076 -82.65517 16550 ft 358 kts 104°
2026-05-06 20:17 42.25004 -82.62113 17213 ft 367 kts 91°
2026-05-06 20:18 42.25150 -82.58663 17887 ft 372 kts 90°
2026-05-06 20:18 42.25326 -82.55157 18511 ft 375 kts 91°
2026-05-06 20:18 42.25468 -82.51636 19095 ft 377 kts 91°
2026-05-06 20:18 42.25549 -82.49288 19488 ft 379 kts 91°
2026-05-06 20:19 42.25596 -82.44581 20296 ft 378 kts 96°
2026-05-06 20:19 42.25572 -82.42179 20713 ft 379 kts 95°
2026-05-06 20:19 42.25561 -82.37460 21517 ft 380 kts 95°
2026-05-06 20:19 42.25527 -82.33899 22163 ft 379 kts 95°
2026-05-06 20:20 42.25477 -82.30343 22821 ft 378 kts 95°
2026-05-06 20:20 42.25436 -82.26800 23482 ft 377 kts 95°
2026-05-06 20:20 42.25402 -82.23270 24045 ft 375 kts 95°
2026-05-06 20:20 42.25378 -82.20949 24415 ft 373 kts 95°
2026-05-06 20:21 42.25337 -82.17473 24973 ft 370 kts 95°
2026-05-06 20:21 42.25293 -82.14023 25548 ft 365 kts 95°
2026-05-06 20:21 42.25239 -82.09514 26302 ft 358 kts 95°
2026-05-06 20:21 42.25198 -82.06188 26877 ft 352 kts 96°
2026-05-06 20:22 42.25170 -82.03973 27268 ft 346 kts 96°
2026-05-06 20:22 42.25128 -82.00770 27843 ft 337 kts 96°
2026-05-06 20:22 42.25088 -81.97696 28289 ft 331 kts 97°
2026-05-06 20:22 42.25039 -81.94553 28309 ft 344 kts 96°
2026-05-06 20:23 42.24987 -81.91258 28274 ft 359 kts 96°
2026-05-06 20:23 42.24941 -81.87810 28331 ft 372 kts 96°
2026-05-06 20:23 42.24895 -81.84287 28537 ft 379 kts 96°
2026-05-06 20:23 42.24844 -81.80719 28859 ft 382 kts 96°
2026-05-06 20:24 42.24787 -81.77119 29154 ft 386 kts 96°
2026-05-06 20:24 42.24730 -81.73493 29419 ft 390 kts 96°
2026-05-06 20:24 42.24673 -81.69810 29694 ft 394 kts 96°
2026-05-06 20:24 42.24614 -81.66133 29965 ft 399 kts 96°
2026-05-06 20:25 42.24553 -81.62375 30162 ft 403 kts 96°
2026-05-06 20:25 42.24488 -81.58571 30392 ft 407 kts 96°
2026-05-06 20:25 42.24423 -81.54727 30615 ft 412 kts 96°
2026-05-06 20:25 42.24356 -81.50848 30834 ft 416 kts 96°
2026-05-06 20:26 42.24300 -81.46925 31073 ft 420 kts 95°
2026-05-06 20:26 42.24258 -81.42970 31303 ft 424 kts 95°
2026-05-06 20:26 42.24209 -81.38970 31537 ft 428 kts 95°
2026-05-06 20:26 42.24149 -81.34943 31770 ft 431 kts 95°
2026-05-06 20:27 42.24088 -81.30934 32011 ft 435 kts 95°
2026-05-06 20:27 42.24030 -81.26842 32201 ft 439 kts 95°
2026-05-06 20:27 42.23971 -81.22697 32449 ft 442 kts 95°
2026-05-06 20:27 42.23907 -81.18528 32689 ft 446 kts 95°
2026-05-06 20:28 42.23840 -81.14333 32930 ft 450 kts 95°
2026-05-06 20:28 42.23772 -81.10104 33171 ft 453 kts 95°
2026-05-06 20:28 42.23703 -81.05834 33418 ft 456 kts 95°
2026-05-06 20:28 42.23631 -81.01541 33665 ft 460 kts 95°
2026-05-06 20:29 42.23558 -80.97261 33911 ft 463 kts 95°
2026-05-06 20:29 42.23481 -80.92912 34142 ft 466 kts 95°
2026-05-06 20:29 42.23403 -80.88533 34314 ft 469 kts 95°
2026-05-06 20:29 42.23323 -80.84108 34542 ft 472 kts 95°
2026-05-06 20:30 42.23240 -80.79673 34768 ft 475 kts 95°
2026-05-06 20:30 42.23067 -80.70707 35213 ft 481 kts 95°
2026-05-06 20:30 42.22978 -80.66191 35446 ft 483 kts 95°
2026-05-06 20:31 42.22886 -80.61651 35671 ft 486 kts 95°
2026-05-06 20:31 42.22793 -80.57136 35951 ft 488 kts 95°
2026-05-06 20:31 42.22697 -80.52549 36158 ft 491 kts 95°
2026-05-06 20:31 42.22598 -80.47945 36393 ft 493 kts 95°
2026-05-06 20:32 42.22498 -80.43312 36621 ft 495 kts 95°
2026-05-06 20:32 42.22394 -80.38652 36865 ft 497 kts 95°
2026-05-06 20:32 42.22288 -80.33973 36952 ft 504 kts 95°
2026-05-06 20:33 42.22063 -80.24368 36964 ft 521 kts 95°
2026-05-06 20:33 42.21825 -80.14424 36952 ft 538 kts 95°
2026-05-06 20:34 42.21571 -80.04273 36962 ft 554 kts 95°
2026-05-06 20:34 42.21299 -79.93718 36956 ft 570 kts 95°
2026-05-06 20:35 42.21014 -79.83015 36941 ft 571 kts 95°
2026-05-06 20:35 42.20716 -79.72307 36936 ft 571 kts 95°
2026-05-06 20:36 42.20412 -79.61690 36941 ft 571 kts 95°
2026-05-06 20:36 42.20095 -79.50977 36933 ft 571 kts 95°
2026-05-06 20:37 42.19768 -79.40270 36908 ft 571 kts 95°
2026-05-06 20:37 42.19434 -79.29615 36912 ft 572 kts 95°
2026-05-06 20:38 42.19086 -79.18892 36907 ft 572 kts 95°
2026-05-06 20:38 42.19338 -79.08186 36910 ft 575 kts 80°
2026-05-06 20:39 42.20749 -78.97586 36890 ft 575 kts 79°
2026-05-06 20:39 42.22084 -78.86958 36895 ft 575 kts 80°
2026-05-06 20:40 42.23430 -78.76342 36901 ft 575 kts 79°
2026-05-06 20:40 42.24761 -78.65786 36900 ft 574 kts 80°
2026-05-06 20:41 42.26075 -78.55162 36903 ft 574 kts 79°
2026-05-06 20:41 42.27398 -78.44531 36906 ft 575 kts 80°
2026-05-06 20:42 42.28695 -78.33891 36908 ft 574 kts 80°
2026-05-06 20:42 42.29988 -78.23313 36903 ft 574 kts 80°
2026-05-06 20:43 42.31269 -78.12659 36901 ft 574 kts 80°
2026-05-06 20:43 42.32545 -78.02025 36897 ft 574 kts 80°
2026-05-06 20:44 42.33809 -77.91364 36888 ft 575 kts 80°
2026-05-06 20:44 42.35057 -77.80772 36900 ft 574 kts 80°
2026-05-06 20:45 42.36303 -77.70101 36932 ft 574 kts 81°
2026-05-06 20:45 42.37532 -77.59487 36904 ft 570 kts 81°
2026-05-06 20:46 42.38747 -77.48917 36897 ft 569 kts 81°
2026-05-06 20:46 42.39951 -77.38340 36893 ft 569 kts 81°
2026-05-06 20:47 42.41139 -77.27824 36895 ft 569 kts 81°
2026-05-06 20:47 42.42326 -77.17223 36898 ft 571 kts 81°
2026-05-06 20:48 42.43505 -77.06601 36898 ft 570 kts 81°
2026-05-06 20:48 42.44673 -76.95981 36902 ft 571 kts 81°
2026-05-06 20:49 42.45816 -76.85416 36871 ft 571 kts 81°
2026-05-06 20:49 42.46961 -76.74798 36892 ft 568 kts 81°
2026-05-06 20:50 42.48103 -76.64183 36888 ft 569 kts 82°
2026-05-06 20:50 42.49229 -76.53595 36889 ft 568 kts 82°
2026-05-06 20:51 42.50341 -76.43054 36888 ft 569 kts 82°
2026-05-06 20:51 42.51451 -76.32446 36887 ft 569 kts 82°
2026-05-06 20:52 42.52548 -76.21821 36879 ft 569 kts 82°
2026-05-06 20:52 42.53630 -76.11211 36867 ft 567 kts 82°
2026-05-06 20:53 42.54704 -76.00609 36849 ft 568 kts 82°
2026-05-06 20:53 42.55760 -75.90064 36915 ft 568 kts 82°
2026-05-06 20:54 42.56810 -75.79490 36850 ft 561 kts 82°
2026-05-06 20:54 42.57321 -75.74310 36836 ft 546 kts 82°
2026-05-06 20:54 42.57816 -75.69267 36832 ft 538 kts 82°
2026-05-06 20:55 42.58796 -75.59256 36833 ft 532 kts 82°
2026-05-06 20:55 42.59755 -75.49346 36827 ft 530 kts 83°
2026-05-06 20:56 42.60695 -75.39505 36842 ft 528 kts 83°
2026-05-06 20:56 42.61646 -75.29598 36837 ft 529 kts 83°
2026-05-06 20:57 42.62573 -75.19692 36835 ft 529 kts 83°
2026-05-06 20:57 42.63500 -75.09793 36844 ft 529 kts 83°
2026-05-06 20:58 42.64409 -74.99946 36869 ft 529 kts 83°
2026-05-06 20:58 42.65314 -74.90062 36841 ft 526 kts 83°
2026-05-06 20:59 42.66207 -74.80211 36844 ft 526 kts 83°
2026-05-06 20:59 42.67093 -74.70347 36841 ft 526 kts 83°
2026-05-06 21:00 42.67970 -74.60481 36824 ft 526 kts 83°
2026-05-06 21:00 42.68833 -74.50679 36827 ft 526 kts 84°
2026-05-06 21:01 42.69695 -74.40787 36820 ft 526 kts 84°
2026-05-06 21:01 42.70547 -74.30910 36803 ft 526 kts 84°
2026-05-06 21:02 42.71388 -74.21051 36795 ft 525 kts 84°
2026-05-06 21:02 42.72218 -74.11232 36811 ft 526 kts 84°
2026-05-06 21:03 42.73042 -74.01381 36797 ft 524 kts 84°
2026-05-06 21:03 42.73857 -73.91533 36775 ft 524 kts 84°
2026-05-06 21:04 42.74645 -73.81686 36775 ft 523 kts 88°
2026-05-06 21:04 42.74630 -73.71892 36783 ft 522 kts 93°
2026-05-06 21:05 42.74564 -73.62003 36785 ft 522 kts 92°
2026-05-06 21:05 42.74488 -73.52113 36721 ft 523 kts 93°
2026-05-06 21:06 42.74262 -73.42247 36722 ft 521 kts 97°
2026-05-06 21:06 42.74034 -73.37337 36878 ft 524 kts 93°
2026-05-06 21:06 42.74076 -73.32442 36899 ft 524 kts 89°
2026-05-06 21:07 42.74340 -73.22560 36553 ft 521 kts 93°
2026-05-06 21:07 42.74189 -73.17634 36309 ft 519 kts 96°
2026-05-06 21:07 42.74009 -73.12732 35986 ft 520 kts 96°
2026-05-06 21:07 42.73637 -73.07876 35639 ft 517 kts 101°
2026-05-06 21:08 42.73144 -73.03019 35276 ft 517 kts 103°
2026-05-06 21:08 42.72578 -72.98190 34916 ft 516 kts 104°
2026-05-06 21:08 42.71984 -72.93437 34537 ft 517 kts 103°
2026-05-06 21:08 42.71420 -72.88627 34173 ft 517 kts 103°
2026-05-06 21:09 42.70880 -72.83773 33743 ft 517 kts 103°
2026-05-06 21:09 42.70324 -72.78948 33230 ft 516 kts 103°
2026-05-06 21:09 42.69744 -72.74148 32681 ft 515 kts 103°
2026-05-06 21:09 42.69169 -72.69355 32118 ft 510 kts 103°
2026-05-06 21:10 42.68615 -72.64611 31584 ft 505 kts 103°
2026-05-06 21:10 42.68065 -72.59929 31028 ft 500 kts 103°
2026-05-06 21:10 42.67506 -72.55354 30504 ft 495 kts 104°
2026-05-06 21:10 42.66937 -72.50769 29990 ft 491 kts 104°
2026-05-06 21:11 42.66381 -72.46209 29405 ft 487 kts 104°
2026-05-06 21:11 42.65832 -72.41673 28811 ft 484 kts 104°
2026-05-06 21:11 42.65281 -72.37177 28228 ft 481 kts 104°
2026-05-06 21:11 42.64729 -72.32725 27683 ft 475 kts 104°
2026-05-06 21:12 42.64194 -72.28335 27117 ft 469 kts 104°
2026-05-06 21:12 42.63723 -72.24121 26457 ft 433 kts 103°
2026-05-06 21:12 42.63282 -72.20157 25690 ft 423 kts 104°
2026-05-06 21:12 42.62825 -72.16339 24994 ft 414 kts 105°
2026-05-06 21:13 42.62355 -72.12462 24334 ft 418 kts 104°
2026-05-06 21:13 42.61899 -72.08550 23674 ft 414 kts 104°
2026-05-06 21:13 42.61465 -72.04742 22945 ft 403 kts 104°
2026-05-06 21:13 42.61022 -72.01037 22188 ft 393 kts 105°
2026-05-06 21:14 42.60561 -71.97422 21432 ft 385 kts 106°
2026-05-06 21:14 42.60111 -71.93873 20693 ft 378 kts 105°
2026-05-06 21:14 42.59682 -71.90391 19948 ft 369 kts 105°
2026-05-06 21:14 42.59274 -71.87060 19143 ft 358 kts 106°
2026-05-06 21:15 42.58863 -71.83777 18333 ft 349 kts 105°
2026-05-06 21:15 42.58923 -71.80495 17478 ft 350 kts 79°
2026-05-06 21:15 42.59530 -71.77332 16575 ft 340 kts 76°
2026-05-06 21:15 42.60192 -71.74245 15655 ft 340 kts 76°
2026-05-06 21:16 42.60808 -71.71157 14773 ft 338 kts 77°
2026-05-06 21:16 42.61385 -71.68075 13910 ft 336 kts 77°
2026-05-06 21:16 42.61962 -71.65043 12972 ft 335 kts 76°
2026-05-06 21:16 42.62560 -71.62002 12011 ft 332 kts 77°
2026-05-06 21:17 42.63148 -71.58995 11102 ft 329 kts 77°
2026-05-06 21:17 42.63724 -71.56001 10191 ft 327 kts 77°
2026-05-06 21:17 42.64311 -71.52936 9251 ft 340 kts 79°
2026-05-06 21:17 42.64892 -71.49905 8293 ft 324 kts 82°
2026-05-06 21:18 42.64977 -71.46995 7364 ft 297 kts 109°
2026-05-06 21:18 42.64477 -71.44355 6423 ft 285 kts 117°
2026-05-06 21:18 42.63901 -71.41805 5420 ft 280 kts 117°
2026-05-06 21:18 42.63325 -71.39346 4466 ft 270 kts 122°
2026-05-06 21:19 42.62318 -71.37321 3576 ft 259 kts 142°
2026-05-06 21:19 42.61048 -71.35500 2986 ft 267 kts 142°
2026-05-06 21:19 42.59787 -71.33694 2821 ft 260 kts 142°
2026-05-06 21:19 42.58496 -71.31842 2821 ft 272 kts 141°
2026-05-06 21:20 42.57220 -71.30000 2818 ft 266 kts 142°
2026-05-06 21:20 42.55967 -71.28192 2822 ft 259 kts 143°
2026-05-06 21:20 42.54769 -71.26470 2808 ft 243 kts 143°
2026-05-06 21:20 42.53641 -71.24854 2816 ft 228 kts 144°
2026-05-06 21:21 42.52672 -71.23441 2825 ft 185 kts 145°
2026-05-06 21:21 42.52558 -71.23274 2829 ft 179 kts 146°
2026-05-06 21:21 42.52057 -71.22541 2807 ft 149 kts 148°
2026-05-06 21:21 42.51416 -71.21630 2809 ft 125 kts 153°
2026-05-06 21:22 42.50772 -71.20787 2821 ft 133 kts 155°
2026-05-06 21:22 42.50104 -71.19822 2826 ft 144 kts 149°
2026-05-06 21:22 42.49400 -71.18842 2829 ft 147 kts 147°
2026-05-06 21:22 42.48674 -71.17872 2840 ft 149 kts 150°
2026-05-06 21:23 42.47971 -71.16883 2832 ft 139 kts 152°
2026-05-06 21:23 42.47322 -71.15935 2815 ft 133 kts 149°
2026-05-06 21:23 42.46719 -71.15026 2582 ft 135 kts 150°
2026-05-06 21:23 42.46059 -71.14072 2254 ft 137 kts 150°
2026-05-06 21:24 42.45443 -71.13204 1925 ft 121 kts 150°
2026-05-06 21:24 42.44862 -71.12406 1508 ft 119 kts 149°
2026-05-06 21:24 42.44302 -71.11661 1239 ft 103 kts 157°
2026-05-06 21:24 42.43697 -71.10972 942 ft 125 kts 148°
2026-05-06 21:25 42.43095 -71.10240 1140 ft 117 kts 146°
2026-05-06 21:25 42.42500 -71.09390 1122 ft 130 kts 143°
2026-05-06 21:25 42.41878 -71.08460 1030 ft 138 kts 142°
2026-05-06 21:25 42.41238 -71.07496 942 ft 142 kts 139°
2026-05-06 21:26 42.40589 -71.06505 918 ft 137 kts 140°
2026-05-06 21:26 42.39966 -71.05549 921 ft 134 kts 136°
2026-05-06 21:26 42.39421 -71.04543 720 ft 128 kts 133°
2026-05-06 21:26 42.38845 -71.03650 638 ft 128 kts 142°
2026-05-06 21:27 42.38223 -71.02814 458 ft 123 kts 144°
2026-05-06 21:27 42.37611 -71.02012 174 ft 122 kts 139°
2026-05-06 21:27 42.37048 -71.01273 29 ft 104 kts 141°
2026-05-06 21:27 42.36654 -71.00758 32 ft 50 kts 135°
2026-05-06 21:28 42.36469 -71.00512 31 ft 31 kts 133°
2026-05-06 21:28 42.36335 -71.00339 27 ft 23 kts 140°
2026-05-06 21:28 42.36220 -71.00230 27 ft 18 kts 163°
2026-05-06 21:28 42.36109 -71.00251 27 ft 13 kts 206°
2026-05-06 21:29 42.36090 -71.00301 26 ft 5 kts 271°
2026-05-06 21:29 42.36099 -71.00365 27 ft 10 kts 270°
2026-05-06 21:29 42.36068 -71.00444 27 ft 9 kts 244°
2026-05-06 21:29 42.36076 -71.00538 28 ft 12 kts 288°
2026-05-06 21:30 42.36107 -71.00655 23 ft 15 kts 289°
2026-05-06 21:30 42.36145 -71.00793 27 ft 16 kts 293°
2026-05-06 21:30 42.36190 -71.00928 27 ft 16 kts 295°
2026-05-06 21:30 42.36238 -71.01078 27 ft 18 kts 292°
2026-05-06 21:31 42.36298 -71.01238 28 ft 22 kts 304°
2026-05-06 21:31 42.36380 -71.01418 25 ft 21 kts 293°
2026-05-06 21:31 42.36364 -71.01517 27 ft 9 kts 252°
2026-05-06 21:31 42.36355 -71.01563 24 ft 0 kts 254°